Location: Eexterzandvoort
(53.0303°N, 6.7884°E)
Time: 00:13:59
(UTC+00:00)

USA 245 - Pass Details

Date: 19 May 2025
Orbit: 292 x 1030 km, 97.9° (Epoch: 02 June)

Event Time Altitude Azimuth Distance (km) Brightness Sun altitude
Exits shadow 20:37:31 - 170° (S) 2,256 5.9 -8.1°
Reaches altitude 10° 20:38:07 10° 170° (S) 2,014 5.7 -8.2°
Maximum altitude 20:42:34 77° 257° (WSW) 764 4.1 -8.6°
Drops below altitude 10° 20:48:09 10° 344° (NNW) 2,505 7.9 -9.1°
Sets 20:50:48 0° 346° (NNW) 3,548 8.8 -9.3°
